Weather History for Cleveland, OH

Change the Weather History Date:

Friday, January 3, 2014

  Actual Average Record
Temperature  
Mean Temperature 12 °F 28 °F  
Max Temperature 15 °F 35 °F 65 °F (1874)
Min Temperature 8 °F 22 °F -16 °F (1879)
Degree Days  
Heating Degree Days 53 37  
Month to date heating degree days 141 110  
Since 1 July heating degree days 2304 2217  
Cooling Degree Days 0 0  
Month to date cooling degree days 0 0  
Year to date cooling degree days 0 0  
Moisture  
Dew Point 3 °F    
Average Humidity 67    
Maximum Humidity 76    
Minimum Humidity 58    
Precipitation  
Precipitation 0.02 in 0.10 in 0.80 in (1993)
Month to date precipitation 0.45 0.30  
Year to date precipitation 0.45 0.30  
Snow  
Snow 0.40 in 0.60 in - ()
Month to date snowfall 8.1 1.8  
Since 1 July snowfall 29.9 20.4  
Snow Depth 8.00 in    
Sea Level Pressure  
Sea Level Pressure 30.36 in    
Wind  
Wind Speed 11 mph (WNW)    
Max Wind Speed 26 mph    
Max Gust Speed 35 mph    
Visibility 6 miles    
Events Snow    
T = Trace of Precipitation, MM = Missing Value Source: NWS Daily Summary

Daily Weather History Graph

Daily Weather History Graph

Search for Another Location

Airport:

Trip Planner

Search our weather history database for the weather conditions in past years. The results will help you decide how hot, cold, wet, or windy it might be!

Date:

Astronomy

Jan. 03, 2014 Rise Set
Actual Time 7:53 AM EST 5:10 PM EST
Civil Twilight 7:22 AM EST 5:41 PM EST
Nautical Twilight 6:47 AM EST 6:16 PM EST
Astronomical Twilight 6:14 AM EST 6:49 PM EST
Moon 9:16 AM EST (1/3) 8:20 PM EST (1/3)
Length of Visible Light 10h 18m
Length of Day
9h 16m
Waxing Crescent, 8% of the Moon is Illuminated
Jan 3
Waxing Crescent
Jan 7
First Quarter
Jan 15
Full
Jan 24
Last Quarter
Jan 30
New

Hourly Weather History & Observations

Time (EST) Temp. Windchill Dew Point Humidity Pressure Visibility Wind Dir Wind Speed Gust Speed Precip Events Conditions
12:01 AM 14.0 °F -3.4 °F 3.0 °F 62% 30.13 in 4.0 mi North 19.6 mph 29.9 mph 0.00 in Snow Light Snow
12:27 AM 15.1 °F -2.5 °F 3.9 °F 61% 30.14 in 2.5 mi North 20.7 mph 28.8 mph 0.00 in Snow Light Snow
12:44 AM 15.1 °F -2.9 °F 6.1 °F 68% 30.16 in 4.0 mi North 21.9 mph 29.9 mph 0.00 in Snow Light Snow
12:51 AM 14.0 °F -4.3 °F 6.1 °F 71% 30.20 in 4.0 mi NNW 21.9 mph 28.8 mph 0.00 in Snow Light Snow
1:51 AM 14.0 °F -2.5 °F 5.0 °F 67% 30.23 in 6.0 mi North 17.3 mph 25.3 mph 0.00 in Snow Light Snow
2:51 AM 14.0 °F -2.0 °F 6.1 °F 71% 30.27 in 3.0 mi North 16.1 mph - 0.00 in Snow Light Snow
2:59 AM 14.0 °F -1.4 °F 6.1 °F 71% 30.23 in 2.5 mi North 15.0 mph 21.9 mph 0.00 in Snow Light Snow
3:05 AM 12.9 °F -2.2 °F 7.0 °F 77% 30.24 in 1.0 mi NNW 13.8 mph - 0.00 in Snow Light Snow
3:14 AM 12.9 °F -3.9 °F 7.0 °F 77% 30.24 in 1.2 mi NW 17.3 mph - 0.00 in Snow Light Snow
3:22 AM 12.9 °F -2.2 °F 6.1 °F 74% 30.25 in 1.8 mi NW 13.8 mph - 0.00 in Snow Light Snow
3:29 AM 12.9 °F -1.6 °F 6.1 °F 74% 30.25 in 3.0 mi NW 12.7 mph - 0.00 in Snow Light Snow
3:51 AM 12.9 °F -2.8 °F 5.0 °F 71% 30.30 in 6.0 mi NNW 15.0 mph - 0.00 in Snow Light Snow
4:51 AM 12.9 °F -1.6 °F 5.0 °F 71% 30.33 in 4.0 mi NNW 12.7 mph - 0.00 in Snow Light Snow
5:51 AM 12.0 °F -0.4 °F 5.0 °F 73% 30.35 in 6.0 mi NNW 9.2 mph - 0.00 in Snow Light Snow
6:51 AM 12.0 °F -2.7 °F 5.0 °F 73% 30.38 in 6.0 mi North 12.7 mph - 0.00 in Snow Light Snow
7:51 AM 12.0 °F -4.5 °F 3.9 °F 70% 30.41 in 9.0 mi North 16.1 mph 19.6 mph 0.00 in Snow Light Snow
8:51 AM 12.0 °F -3.4 °F 5.0 °F 73% 30.44 in 5.0 mi NNW 13.8 mph - 0.00 in Snow Light Snow
9:20 AM 12.0 °F -1.3 °F 5.0 °F 73% 30.40 in 1.8 mi NNW 10.4 mph - 0.00 in Snow Light Snow
9:29 AM 12.0 °F -1.3 °F 5.0 °F 73% 30.40 in 3.0 mi NW 10.4 mph - 0.00 in Snow Light Snow
9:44 AM 12.0 °F -2.0 °F 5.0 °F 73% 30.40 in 1.8 mi NW 11.5 mph - 0.00 in Snow Light Snow
9:51 AM 12.0 °F -1.3 °F 5.0 °F 73% 30.45 in 2.5 mi NW 10.4 mph - 0.00 in Snow Light Snow
10:15 AM 12.0 °F -0.4 °F 3.9 °F 70% 30.42 in 6.0 mi NW 9.2 mph - 0.00 in Snow Light Snow
10:42 AM 12.9 °F 2.6 °F 5.0 °F 71% 30.43 in 1.8 mi NW 6.9 mph - 0.00 in Snow Light Snow
10:51 AM 12.9 °F 1.6 °F 5.0 °F 71% 30.48 in 2.0 mi NNW 8.1 mph - 0.00 in Snow Light Snow
11:38 AM 12.9 °F 5.2 °F 6.1 °F 74% 30.42 in 1.5 mi WNW 4.6 mph - 0.00 in Snow Light Snow
11:51 AM 12.0 °F 1.5 °F 6.1 °F 77% 30.47 in 1.5 mi WSW 6.9 mph - 0.00 in Snow Light Snow
12:26 PM 12.9 °F 2.6 °F 5.0 °F 71% 30.42 in 3.0 mi West 6.9 mph - 0.00 in Snow Light Snow
12:42 PM 12.9 °F 1.6 °F 5.0 °F 71% 30.42 in 9.0 mi WSW 8.1 mph - 0.00 in Snow Light Snow
12:51 PM 12.0 °F -0.4 °F 3.9 °F 70% 30.46 in 6.0 mi WSW 9.2 mph - 0.00 in Snow Light Snow
1:39 PM 12.0 °F 1.5 °F 1.9 °F 64% 30.41 in 10.0 mi WSW 6.9 mph - 0.00 in   Partly Cloudy
1:51 PM 12.9 °F 2.6 °F 3.9 °F 67% 30.45 in 10.0 mi WSW 6.9 mph - 0.00 in   Scattered Clouds
2:51 PM 12.9 °F 2.6 °F -0.0 °F 56% 30.44 in 10.0 mi WSW 6.9 mph - N/A   Partly Cloudy
3:51 PM 12.0 °F 1.5 °F -0.0 °F 59% 30.47 in 10.0 mi SW 6.9 mph - N/A   Partly Cloudy
4:51 PM 10.9 °F 0.2 °F -2.0 °F 56% 30.47 in 10.0 mi SW 6.9 mph - N/A   Partly Cloudy
5:51 PM 10.9 °F 1.4 °F -2.0 °F 56% 30.46 in 10.0 mi SSW 5.8 mph - N/A   Clear
6:51 PM 9.0 °F -2.2 °F -2.0 °F 61% 30.43 in 10.0 mi South 6.9 mph - N/A   Clear
7:51 PM 8.1 °F -4.3 °F -2.0 °F 64% 30.43 in 10.0 mi SSE 8.1 mph - N/A   Scattered Clouds
8:51 PM 12.0 °F -1.3 °F -0.9 °F 56% 30.40 in 10.0 mi South 10.4 mph - N/A   Overcast
9:51 PM 12.9 °F -0.9 °F -0.9 °F 54% 30.37 in 10.0 mi South 11.5 mph - N/A   Overcast
10:51 PM 12.9 °F -2.8 °F -0.9 °F 54% 30.34 in 10.0 mi South 15.0 mph 21.9 mph N/A   Overcast
11:51 PM 14.0 °F -2.0 °F -0.0 °F 54% 30.31 in 10.0 mi South 16.1 mph 24.2 mph N/A   Overcast